sat.trackr.live / text

‹ back to catalog

STARLINK-32824

NORAD 62817 · 2025-018M

PAYLOAD ACTIVE UNKNOWN

§ Identity

Operator
Country
US
Launch date
2025-01-24
Launch site
AFWTR
Launch vehicle
Mass (kg)
RCS (m²)

Purposes: comms

External: N2YO · Heavens-Above · Gunter

§ Orbital elements

Epoch: 2026-09-21T20:58:18.859296Z

Period
93.85 min
Inclination
53.1582°
Eccentricity
0.0001397
Mean motion
15.34401525 rev/d
Perigee alt
461.7 km
Apogee alt
463.7 km
Semi-major
6,840.8 km
B*
3.0033e-4
RAAN
117.0208°
Arg perigee
131.4295°
Mean anomaly
228.6828°
Rev number
9,417

§ Raw data

STARLINK-328241 62817U 25018M   26264.87382939  .00009784  00000+0  30033-3 0  99982 62817  53.1582 117.0208 0001397 131.4295 228.6828 15.34401525 94171

JSON: /api/v1/satellites/62817 · /tle

For live sub-satellite position, see the globe view (requires WebGL).

§ Visibility from observer

Set your observer location to see the next 7 days of passes ≥ 10°. The values pass through the URL so the page stays shareable.

No JS? Fill the form by hand. The geolocation button needs JavaScript.